www.pogodaiklimat.ru

Погода и климат >> Архив погоды >> Дания >> Хольбек


ПОГОДА в Хольбеке

  • Прогноз погоды в Хольбеке
  • Монитор погоды в Хольбеке

АРХИВ ПОГОДЫ в Хольбеке

Время (UTC), дата Ветер
(напр.,м/с)
 
Видим.   Явления Облачность Т
(С)
Тd
(С)
f
(%)
Тe
(С)
Тes
(С)
Комфортность P
(гПа)
Po
(гПа)
Тmin
(С)
Tmax
(С)
R
(мм)
R24
(мм)
S
(см)
22 11.06 В 4 27 км 10/10 330 м
[]
+17.5 +15.7 89 +17 +17 1013.7 1012.1
23 11.06 В 5 24 км 9/9 300 м
[]
+17.3 +15.5 89 +17 +17 1013.7 1012.1
00 12.06 В 3 22 км 9/9 360 м
[]
+16.9 +15.4 91 +17 +17 1013.5 1011.9
01 12.06 В 1 22 км 10/10 330 м
[]
+16.8 +15.7 93 +18 +18 1014.2 1012.6
02 12.06 СВ 2 23 км 9/9 360 м
[]
+16.2 +15.1 93 +16 +16 1013.8 1012.2
03 12.06 В 2 12 км слаб. дождь 6/6 400 м
[]
+15.8 +15.2 96 +16 +16 1014.2 1012.6 0.9
04 12.06 СВ 3 6000 м дождь 9/9 960 м
[]
+15.3 +15.2 99 +14 +14 1012.1 1010.5 9
05 12.06 СВ 5 15 км в посл. час дождь 6/6 120 м
[]
+15.7 +15.6 99 +15 +15 1010.0 1008.4 0.8
06 12.06 В 5 15 км {дождь} 10/10 90 м
[]
+15.6 +15.5 99 +14 +14 1011.1 1009.5 +15.2 +19.6 10
07 12.06 В 4 25 км 6/6 180 м
[]
+18.0 +16.3 90 +18 +20 1011.6 1010.0
08 12.06 В 4 35 км 9/9 360 м
[]
+18.4 +16.7 90 +19 +20 1011.5 1009.9
09 12.06 ЮВ 5 35 км 9/9 420 м
[]
+19.2 +16.3 83 +21 +21 комфорт 1011.7 1010.2
10 12.06 В 6 30 км 6/6 500 м
[]
+20.6 +17.2 81 +24 +26 комфорт 1011.4 1009.8
11 12.06 ЮВ 5 30 км 10/10 480 м
[]
+19.8 +17.1 84 +22 +22 комфорт 1011.4 1009.8
12 12.06 ЮВ 5 27 км 10/10 450 м
[]
+19.2 +16.6 85 +21 +21 комфорт 1011.2 1009.6
13 12.06 В 3 20 км 10/10 400 м
[]
+19.2 +16.5 84 +21 +21 комфорт 1010.5 1008.9
14 12.06 В 5 26 км 6/6 600 м
[]
+20.4 +17.0 81 +24 +26 комфорт 1009.7 1008.1
15 12.06 СВ 4 25 км 9/9 480 м
[]
+20.5 +17.6 83 +24 +25 комфорт 1008.9 1007.3
16 12.06 СВ 4 26 км 9/9 600 м
[]
+19.6 +17.7 89 +22 +23 комфорт 1007.9 1006.4
17 12.06 СВ 3 23 км 4/4 630 м
[]
+20.3 +17.7 85 +24 +26 комфорт 1007.3 1005.8
18 12.06 ЮВ 4 21 км 9/9 600 м
[]
+20.5 +17.5 83 +24 +24 комфорт 1008.1 1006.6 +15.6 +21.1
19 12.06 Ю 2 16 км 9/9 480 м
[]
+19.0 +16.9 88 +21 +21 комфорт 1008.3 1006.7
20 12.06 Ю 3 14 км 9/9 360 м
[]
+18.3 +16.7 90 +19 +19 1008.3 1006.7
21 12.06 ЮВ 5 4900 м дождь 9/9 150 м
[]
+16.0 +15.6 97 +15 +15 1008.4 1006.8 1
22 12.06 ЮВ 3 6000 м слаб. дождь 9/9 120 м
[]
+15.7 +15.6 99 +15 +15 1008.1 1006.6 4
23 12.06 ЮЗ 4 8000 м в посл. час дождь 9/9 90 м
[]
+15.4 +15.3 99 +14 +14 1008.8 1007.2 0.6
00 13.06 ЮЗ 4 6000 м дымка {дождь} 10/10 90 м
[]
+15.3 +15.2 99 +14 +14 1008.5 1006.9 4
01 13.06 ЮЗ 4 5000 м дымка 10/10 120 м
[]
+15.6 +15.4 99 +15 +15 1009.2 1007.6
02 13.06 Ю 3 5000 м дымка 6/6 270 м
[]
+15.6 +15.3 98 +15 +15 1010.0 1008.4
03 13.06 ЮЗ 3 4900 м дымка ясно +14.0 +13.7 98 +13 +13 1010.1 1008.5
04 13.06 Ю 2 4100 м дымка 1/1 480 м
[]
+13.4 +13.2 99 +13 +14 1010.9 1009.3
05 13.06 ЮЗ 3 5000 м дымка 4/0
[]
+14.6 +14.0 96 +14 +15 1011.7 1010.1
06 13.06 ЮЗ 4 14 км {дымка} 1/0
[]
+16.2 +13.8 86 +16 +18 1011.9 1010.3 +13.1 +20.5
07 13.06 ЮЗ 4 19 км 6/0
[]
+16.4 +13.0 80 +16 +19 1012.0 1010.4
08 13.06 З 4 30 км 9/0
[]
+17.5 +12.6 73 +17 +21 1012.1 1010.5
09 13.06 ЮЗ 3 30 км 1/0
[]
+19.3 +13.0 67 +21 +31 комфорт 1012.9 1011.3
10 13.06 Ю 4 35 км 1/0
[]
+20.2 +12.2 60 +22 +33 комфорт 1013.3 1011.7
11 13.06 Ю 4 30 км 1/1 1200 м
[]
+20.9 +11.9 56 +23 +33 комфорт 1013.3 1011.7
12 13.06 Ю 5 30 км 1/1 1300 м
[]
+21.4 +11.6 54 +23 +32 комфорт 1013.4 1011.8
13 13.06 Ю 5 23 км 4/4 1410 м
[]
+20.9 +12.1 57 +23 +27 комфорт 1013.3 1011.7
14 13.06 Ю 5 40 км 4/4 1410 м
[]
+20.6 +11.6 56 +22 +26 комфорт 1013.5 1011.9
15 13.06 Ю 5 30 км 1/1 1500 м
[]
+21.7 +10.8 50 +24 +28 комфорт 1013.5 1011.9
16 13.06 Ю 5 35 км 4/4 1470 м
[]
+20.9 +11.9 56 +23 +25 комфорт 1013.7 1012.1
17 13.06 Ю 3 40 км 9/0
[]
+19.6 +12.6 64 +21 +23 комфорт 1014.0 1012.4
18 13.06 ЮВ 2 40 км 1/1 1500 м
[]
+19.3 +13.6 70 +21 +23 комфорт 1014.1 1012.5 +15.4 +22.2
19 13.06 ЮВ 5 15 км слаб. ливневой дождь 9/9 1260 м
[]
+16.8 +13.9 83 +16 +16 1014.6 1013.0 0.2
20 13.06 В 3 40 км слаб. ливневой дождь 9/9 1500 м
[]
+15.5 +13.6 88 +15 +15 1014.9 1013.3
21 13.06 СВ 4
{19}
25 км сильн. ливневой дождь 6/6 210 м
[]
+14.4 +13.3 93 +13 +13 1015.2 1013.6 8
22 13.06 В 4 35 км {ливн. осадки} 6/0 2000 м
[]
+14.5 +13.6 94 +13 +13 1014.9 1013.3
23 13.06 В 5 45 км 9/0
[]
+14.4 +12.4 88 +13 +13 1015.5 1013.9
00 14.06 В 2
{19}
45 км {ливн. осадки, дождь} 9/0
[]
+13.8 +12.3 91 +13 +13 1015.5 1013.8 0.0
01 14.06 ЮВ 5 45 км 6/0
[]
+14.5 +13.0 91 +13 +13 1015.8 1014.2
02 14.06 ЮВ 2 25 км 4/0 2000 м
[]
+13.6 +12.9 96 +13 +13 1016.7 1015.0
03 14.06 В 3 30 км 1/0
[]
+13.5 +12.8 96 +12 +12 1016.6 1015.0
04 14.06 В 4 35 км 1/0
[]
+13.6 +12.8 95 +12 +12 1016.8 1015.2
05 14.06 ЮВ 4 30 км ясно +15.0 +13.7 92 +14 +15 1017.0 1015.4
06 14.06 ЮВ 3 35 км ясно +16.6 +14.1 85 +16 +20 1017.3 1015.7 +12.9 +19.2
07 14.06 ЮВ 3 35 км ясно +18.5 +14.7 79 +19 +25 1017.8 1016.2
08 14.06 ЮВ 3 35 км 6/0
[]
+18.7 +15.0 79 +20 +26 1018.3 1016.7
09 14.06 Ю 4 40 км ясно +21.1 +14.0 64 +24 +32 комфорт 1018.3 1016.7
10 14.06 Ю 5 30 км ясно +22.4 +12.8 55 +25 +33 комфорт 1018.4 1016.8
11 14.06 Ю 5 30 км ясно +22.9 +12.3 51 +26 +35 жарко 1018.4 1016.9
12 14.06 Ю 5 35 км ясно +23.6 +10.7 44 +25 +33 комфорт 1018.2 1016.7
13 14.06 Ю 5 35 км 1/0
[]
+24.1 +11.2 44 +25 +32 комфорт 1018.1 1016.5
14 14.06 ЮВ 5 40 км 1/0
[]
+23.6 +12.7 50 +26 +32 жарко 1017.7 1016.1
15 14.06 ЮВ 3 45 км 9/9 1500 м
[]
+21.8 +14.7 64 +25 +26 комфорт 1017.8 1016.3
16 14.06 ЮВ 6 45 км 4/0
[]
+20.3 +12.6 61 +22 +24 комфорт 1017.6 1016.0
17 14.06 ЮВ 5 14 км дождь 9/0 2000 м
[]
+18.0 +15.1 83 +18 +18 1018.6 1017.0 0.3
18 14.06 СВ 3 24 км слаб. ливневой дождь 9/9 420 м
[]
+17.8 +16.0 89 +18 +18 1018.3 1016.7 +16.6 +24.6 1
19 14.06 В 5 8000 м дождь {ливн. осадки} 9/9 800 м
[]
+15.5 +14.5 94 +14 +14 1019.3 1017.7 3
20 14.06 В 4 40 км в посл. час дождь 4/0
[]
+15.3 +14.0 92 +14 +14 1018.2 1016.6 0.3
21 14.06 В 5 45 км в посл. час дождь {ливн. осадки} 4/4 1500 м
[]
+15.5 +13.8 90 +14 +14 1018.4 1016.8 6
22 14.06 В 3 35 км 1/0 2000 м
[]
+14.2 +12.9 92 +13 +13 1017.9 1016.3
23 14.06 В 3 30 км 1/0
[]
+13.8 +12.7 93 +13 +13 1017.3 1015.7
00 15.06 В 3 26 км {ливн. осадки, дождь} 1/0
[]
+13.8 +12.5 92 +13 +13 1016.8 1015.1
01 15.06 В 4 45 км 1/0
[]
+15.9 +12.2 79 +15 +15 1016.3 1014.7
02 15.06 В 4 50 км 9/0
[]
+16.0 +12.0 77 +15 +15 1015.7 1014.1
03 15.06 В 3 40 км 9/0
[]
+16.0 +12.7 81 +16 +16 1015.2 1013.6
04 15.06 В 5 45 км 9/0
[]
+16.8 +13.5 81 +16 +16 1014.5 1012.9
05 15.06 В 5 35 км 6/0
[]
+17.5 +14.3 81 +17 +18 1014.5 1012.9
06 15.06 В 4 30 км 6/0
[]
+18.3 +15.9 86 +19 +21 1014.1 1012.5 +13.4 +18.5
07 15.06 В 5 30 км 4/0
[]
+19.0 +15.9 82 +20 +23 1014.0 1012.4
08 15.06 В 6 35 км 9/0
[]
+18.7 +15.1 80 +19 +22 1013.9 1012.3
09 15.06 В 6 30 км 4/0
[]
+19.2 +14.1 72 +20 +24 1013.4 1011.8
10 15.06 ЮВ 5 30 км слаб. дождь 6/0
[]
+18.4 +14.7 79 +19 +25 1014.1 1012.6
11 15.06 ЮВ 5 18 км слаб. дождь 9/9 1500 м
[]
+15.8 +13.6 87 +15 +15 1014.2 1012.6 1
12 15.06 ЮВ 3 15 км слаб. дождь 10/10 1500 м
[]
+15.0 +13.3 90 +14 +14 1013.9 1012.3 3
13 15.06 В 5 30 км слаб. дождь 6/6 1080 м
[]
+16.6 +12.6 77 +16 +19 1012.3 1010.7 1
14 15.06 В 4 35 км {дождь} 1/0
[]
+18.2 +13.0 72 +18 +25 1012.1 1010.5
15 15.06 В 8 35 км {дождь} 1/1 1500 м
[]
+19.9 +12.5 62 +21 +22 комфорт 1010.3 1008.7 1
16 15.06 В 8 35 км 4/4 1350 м
[]
+19.9 +10.1 53 +21 +21 комфорт 1010.7 1009.1
17 15.06 В 5 50 км 10/10 1380 м
[]
+19.1 +9.8 55 +20 +20 1011.8 1010.2
18 15.06 В 5
{13}
40 км слаб. ливневой дождь 9/9 1000 м
[]
+16.2 +13.5 84 +15 +15 1011.4 1009.8 +14.9 +20.1 0.0
19 15.06 ЮВ 1 21 км {ливн. осадки} 9/9 1300 м
[]
+16.1 +14.2 88 +17 +17 1011.5 1009.9
20 15.06 ЮВ 2 27 км 10/10 1000 м
[]
+16.3 +13.6 84 +16 +16 1012.2 1010.7
21 15.06 штиль 0 25 км {ливн. осадки} 9/9 870 м
[]
+15.8 +14.2 90 +16 +16 1012.5 1010.9 0.0
22 15.06 Ю 1 20 км 10/10 600 м
[]
+15.7 +14.2 91 +16 +16 1012.7 1011.1
23 15.06 Ю 1 20 км 10/10 400 м
[]
+15.6 +14.7 94 +16 +16 1013.0 1011.4
00 16.06 ЮЗ 2 16 км {ливн. осадки, дымка} 10/10 450 м
[]
+15.8 +14.8 94 +16 +16 1013.0 1011.4
01 16.06 З 3 12 км 9/9 210 м
[]
+15.9 +15.3 96 +15 +15 1013.4 1011.8
02 16.06 З 5 12 км 10/10 210 м
[]
+15.0 +14.2 95 +13 +13 1013.5 1011.9
03 16.06 З 4 21 км 9/9 210 м
[]
+14.6 +13.8 95 +13 +13 1014.0 1012.4
04 16.06 З 6 30 км 9/9 270 м
[]
+14.2 +12.9 92 +12 +12 1014.5 1012.9
05 16.06 З 6 28 км 9/9 330 м
[]
+14.1 +12.3 89 +12 +12 1015.2 1013.6
06 16.06 З 6 35 км 9/9 400 м
[]
+15.1 +12.6 85 +14 +14 1015.9 1014.3 +14.0 +16.3
07 16.06 З 7 30 км 1/1 1320 м
[]
+16.8 +10.9 68 +16 +18 1016.7 1015.1
08 16.06 З 7 35 км ясно +17.6 +10.7 64 +17 +19 1016.7 1015.2
09 16.06 З 7 35 км ясно +17.9 +11.8 67 +17 +20 1017.3 1015.8
10 16.06 З 7 35 км ясно +18.6 +11.4 63 +19 +23 1018.0 1016.5
11 16.06 З 6 35 км ясно +19.6 +11.9 61 +21 +28 комфорт 1018.2 1016.7
12 16.06 З 6 29 км 1/0
[]
+19.6 +12.0 61 +21 +26 комфорт 1018.9 1017.3
13 16.06 З 6 30 км 1/1 1080 м
[]
+19.8 +11.6 59 +21 +26 комфорт 1019.2 1017.6
14 16.06 З 6 30 км 4/4 1050 м
[]
+20.1 +12.3 61 +22 +25 комфорт 1019.5 1017.9
15 16.06 З 5 35 км 1/0
[]
+19.3 +12.1 63 +20 +24 1019.5 1017.9
16 16.06 З 4 30 км 1/0
[]
+18.6 +12.8 69 +19 +23 1019.5 1017.9
17 16.06 З 4 35 км 4/0
[]
+19.3 +13.1 67 +21 +22 комфорт 1019.6 1018.0
18 16.06 З 3 40 км ясно +19.3 +12.9 66 +21 +22 комфорт 1019.5 1017.9 +15.0 +20.4
19 16.06 ЮЗ 2 35 км ясно +17.5 +12.9 74 +18 +18 1019.5 1017.9
20 16.06 ЮЗ 2 30 км ясно +16.0 +12.5 80 +16 +16 1019.5 1017.9
21 16.06 ЮЗ 3 29 км ясно +15.0 +12.9 87 +14 +14 1020.0 1018.4
22 16.06 Ю 2 15 км ясно +13.5 +12.3 92 +13 +13 1020.2 1018.5
23 16.06 ЮЗ 2 15 км ясно +13.3 +12.2 93 +12 +12 1020.2 1018.6
00 17.06 Ю 1 12 км ясно +12.7 +12.0 96 +13 +13 1020.4 1018.7
01 17.06 штиль 0 7000 м дымка ясно +12.1 +11.7 97 +11 +11 1020.5 1018.8
02 17.06 Ю 1 5000 м дымка ясно +11.4 +11.2 99 +12 +12 1020.9 1019.3
03 17.06 Ю 2 800 м туман {дымка} ясно +11.1 +11.0 99 +10 +10 1021.0 1019.4
04 17.06 ЮЗ 2 6000 м в посл. час туман ясно +12.0 +11.9 99 +11 +12 1020.9 1019.3
05 17.06 ЮЗ 1 17 км ясно +14.3 +13.3 94 +15 +17 1021.2 1019.6
06 17.06 ЮЗ 2 26 км {туман, дымка} ясно +16.5 +13.3 81 +17 +21 1021.3 1019.7 +10.2 +19.4
07 17.06 З 3 35 км ясно +18.1 +12.7 71 +19 +25 1021.6 1020.0
08 17.06 З 3 35 км ясно +19.2 +12.4 65 +21 +29 комфорт 1021.6 1020.0
09 17.06 ЮЗ 5 35 км н/о +20.2 +12.1 60 +22 +22 комфорт 1021.6 1020.0
10 17.06 ЮЗ 5 30 км 4/4 1170 м
[]
+20.2 +12.4 61 +22 +26 комфорт 1021.4 1019.8
11 17.06 ЮЗ 5 35 км 4/4 1050 м
[]
+21.0 +13.0 60 +24 +28 комфорт 1021.4 1019.8
12 17.06 ЮЗ 5 30 км 1/1 1000 м
[]
+21.2 +13.5 61 +24 +31 комфорт 1021.3 1019.7
13 17.06 ЮЗ 4 35 км 4/4 1300 м
[]
+21.7 +12.7 57 +24 +30 комфорт 1021.3 1019.7
14 17.06 З 3 40 км 6/6 1080 м
[]
+21.2 +14.0 63 +24 +28 комфорт 1021.2 1019.7
15 17.06 З 3 35 км 6/6 1080 м
[]
+21.5 +14.3 64 +24 +27 комфорт 1021.1 1019.5
16 17.06 З 3 30 км ясно +21.5 +13.1 59 +24 +29 комфорт 1020.8 1019.3
17 17.06 З 1 40 км 6/6 1020 м
[]
+22.2 +13.7 59 +25 +27 комфорт 1020.6 1019.0
18 17.06 З 2 40 км ясно +20.2 +14.5 70 +23 +25 комфорт 1020.6 1019.0 +16.4 +22.6
19 17.06 С 1 40 км н/о +19.7 +14.0 70 +23 +23 комфорт 1020.3 1018.7
20 17.06 штиль 0 40 км ясно +16.6 +14.6 88 +16 +16 1020.5 1018.9
21 17.06 штиль 0 40 км ясно +14.3 +13.4 94 +14 +14 1020.3 1018.7
22 17.06 ЮВ 2 20 км ясно +13.5 +12.6 94 +13 +13 1020.1 1018.5
23 17.06 ЮВ 2 25 км ясно +13.2 +12.5 96 +13 +13 1020.0 1018.4
00 18.06 ЮВ 2 24 км ясно +13.1 +12.1 94 +12 +12 1019.9 1018.2
01 18.06 ЮВ 2 22 км ясно +12.9 +12.1 95 +12 +12 1019.6 1018.0
02 18.06 ЮВ 2 30 км ясно +13.5 +12.0 91 +13 +13 1019.3 1017.7
03 18.06 ЮВ 2 30 км 1/0
[]
+13.3 +12.1 92 +12 +12 1018.9 1017.3
04 18.06 ЮВ 3 40 км 4/0 2000 м
[]
+15.3 +13.0 86 +15 +15 1018.7 1017.1
05 18.06 ЮВ 5 40 км 1/1 1500 м
[]
+16.8 +13.4 80 +16 +17 1018.4 1016.8
06 18.06 ЮВ 5 40 км 4/0 2000 м
[]
+17.6 +13.3 76 +17 +19 1018.2 1016.6 +12.6 +20.6
07 18.06 ЮВ 5 40 км 1/1 1500 м
[]
+19.9 +13.6 67 +22 +25 комфорт 1017.8 1016.2
08 18.06 Ю 6 35 км 6/6 1500 м
[]
+20.7 +14.6 68 +23 +25 комфорт 1017.4 1015.8
09 18.06 ЮВ 5 35 км 1/1 1500 м
[]
+21.7 +15.0 66 +25 +31 комфорт 1017.1 1015.5
10 18.06 ЮВ 5 30 км 1/1 1500 м
[]
+23.3 +15.5 62 +28 +35 душно 1016.9 1015.3
11 18.06 Ю 5 30 км 6/6 1500 м
[]
+23.1 +15.9 64 +28 +31 душно 1016.6 1015.0
12 18.06 Ю 6 28 км ясно +25.0 +16.0 57 +28 +35 жарко 1016.0 1014.5
13 18.06 Ю 5 24 км 1/0
[]
+25.3 +15.6 55 +28 +35 жарко 1015.6 1014.1
14 18.06 Ю 6 27 км ясно +25.6 +14.3 50 +28 +33 жарко 1014.8 1013.3
15 18.06 Ю 6 29 км 1/0
[]
+25.4 +14.6 51 +28 +31 жарко 1014.5 1012.9
17 18.06 ЮВ 4 35 км 1/0
[]
+23.1 +17.3 70 +28 +30 душно 1014.0 1012.5
18 18.06 ЮВ 3 30 км 4/0 2000 м
[]
+21.6 +17.4 77 +26 +27 душно 1013.8 1012.2 +17.6 +25.8
19 18.06 З 1 21 км в посл. час дождь {ливн. осадки} 9/9 1350 м
[]
+18.4 +16.3 88 +21 +21 комфорт 1013.7 1012.1 0.4
20 18.06 Ю 2 13 км 9/9 1500 м
[]
+17.6 +16.8 95 +18 +18 1014.0 1012.4
21 18.06 В 1
{9}
14 км в посл. час дождь {ливн. осадки} 9/0
[]
+17.0 +16.3 96 +18 +18 1013.5 1011.9 0.4
22 18.06 Ю 2 14 км 9/0
[]
+16.9 +16.3 96 +17 +17 1013.6 1012.0

 

Местоположение метеостанции Хольбек (Дания): широта 55.73 долгота 11.60 высота над уровнем моря 13 м.

В архиве по умолчанию представлена погода в Хольбеке за последнюю неделю. Архивные данные за месяц целиком и за предыдущие месяцы, начиная с января 2011 года, Вы можете получить, выбрав интересующий диапазон дат из раскрывающегося списка и нажав кнопку "Ввод!".


*Определитесь, кто Вы:
робот инопланетянин человек

Внимание! Время в таблицах - всемирное. Для получения местного времени необходимо прибавить поправку, которая равна 1 ч.

Смотрите также архив погоды в соседних городах и на ближайших метеорологических станциях:

Погода в Роскилле (Дания) (37 км)
Погода в Гнибене (Дания) (38 км)
Погода на Мысе Roesnaes (Дания) (46 км)
Погода в Флаккебэрге (Дания) (47 км)
Погода в Кёге (Дания) (50 км)
Погода в Сяелсмарке (Дания) (53 км)
Погода в Тысофте (Дания) (56 км)
Погода в Копенгагене Jaegers (Дания) (58 км)
Погода в Бранделеве (Дания) (60 км)
Погода на Мысе Nakkehoved (Дания) (64 км)

Пояснения к столбцам:

Ветер - указаны скорость ветра в м/с - средняя за 10 мин, порывы в срок и между сроками (в фигурных скобках) и направление, откуда дует ветер: С - северный, СВ - северо-восточный, В - восточный, ЮВ - юго-восточный, Ю - южный, ЮЗ - юго-западный, З - западный, СЗ - северо-западный.
Видимость - горизонтальная дальность видимости в метрах или километрах. При видимости от 1 до 10 км при отсутствии осадков обычно наблюдается дымка, при ухудшении видимости до 1 км и менее - туман. В сухую погоду видимость может ухудшаться дымом, пылью или мглою.
Явления - указаны атмосферные явления, наблюдавшиеся в срок или в последний час перед сроком; фигурными скобками обозначены явления, наблюдавшиеся между сроками (за 1-3 часа до срока); квадратными скобками обозначены град или гололедные отложения с указанием их диаметра в мм.
Облачность - указаны через наклонную черту общая и нижняя облачность в баллах и высота нижней границы облаков в метрах; квадратными скобками обозначены формы облаков: Ci - перистые, Cs - перисто-слоистые, Cc - перисто-кучевые, Ac - высококучевые, As - высокослоистые, Sc - слоисто-кучевые, Ns - слоисто-дождевые, Cu - кучевые, Cb - кучево-дождевые. Подробнее классификацию облаков см. в Атласе облаков (PDF).
T - Температура воздуха - температура, измеренная на высоте 2 м над землей.
Td - Температура точки росы - температура, при понижении до которой содержащийся в воздухе водяной пар достигнет насыщения.
f - Относительная влажность воздуха - влажноcть воздуха, измеренная на высоте 2 м над землей.
Te - Эффективная температура - температура, которую ощущает одетый по сезону человек в тени. Характеристика душности погоды. При расчете учитывается влияние влажности воздуха и скорости ветра на теплоощущения человека.
Tes - Эффективная температура на солнце - температура, которую ощущает человек, с поправкой на солнечный нагрев. Характеристика знойности погоды. Зависит от высоты солнца над горизонтом, облачности и скорости ветра. Ночью, в пасмурную погоду, а также при ветре 12 м/с и более поправка равна нулю.
P - Атмосферное давление - приведенное к уровню моря атмосферное давление.
Po - Атмосферное давление - измеренное на уровне метеостанции атмосферное давление.
Tmin - Минимальная температура - минимум температуры воздуха на высоте 2 м над землей.
Tmax - Максимальная температура - максимум температуры воздуха на высоте 2 м над землей.
R - Количество осадков - Количество выпавших осадков за период времени, мм. При наведении курсора мыши на число - период времени, за который выпало указанное количество осадков.
R24 - Количество осадков - Количество выпавших осадков за 24 часа, мм.
S - Снежный покров - Высота снежного покрова, см. При наведении курсора мыши на число - состояние снежного покрова и степень покрытия местности в баллах.